Terminal Aerodrome Forecast
Issued by NWS

Home | Current Version | Previous Version | Text Only | Print | Product List | Glossary On
Versions: 1 2 3 4 5 6 7 8 9 10 11 12 13 14 15 16 17 18 19 20 21 22 23 24 25 26 27 28 29
000
FTUS43 KJKL 282325
TAFSME
TAF
KSME 282325Z 2900/2924 35010KT P6SM VCSH OVC080
     FM290100 29003KT 6SM -SHRA BR BKN010 OVC060
     FM290600 28003KT 2SM BR VCSH OVC009
     FM291400 30004KT P6SM VCSH BKN015
     FM291600 VRB03KT P6SM VCSH BKN035=

USA.gov is the U.S. government's official web portal to all federal, state and local government web resources and services.